sat.trackr.live / text

‹ back to catalog

STARLINK-31468

NORAD 58998 · 2024-036A

PAYLOAD ACTIVE UNKNOWN

§ Identity

Operator
Country
US
Launch date
2024-02-23
Launch site
AFWTR
Launch vehicle
Mass (kg)
RCS (m²)

Purposes: comms

External: N2YO · Heavens-Above · Gunter

§ Orbital elements

Epoch: 2026-05-25T02:01:18.009408Z

Period
94.10 min
Inclination
53.1605°
Eccentricity
0.0001304
Mean motion
15.30215550 rev/d
Perigee alt
474.3 km
Apogee alt
476.1 km
Semi-major
6,853.3 km
B*
1.2247e-4
RAAN
83.0033°
Arg perigee
99.3394°
Mean anomaly
260.7754°
Rev number
12,703

§ Raw data

STARLINK-314681 58998U 24036A   26145.08423622  .00003271  00000+0  12247-3 0  99902 58998  53.1605  83.0033 0001304  99.3394 260.7754 15.30215550127034

JSON: /api/v1/satellites/58998 · /tle

For live sub-satellite position, see the globe view (requires WebGL).

§ Visibility from observer

Set your observer location to see the next 7 days of passes ≥ 10°. The values pass through the URL so the page stays shareable.

No JS? Fill the form by hand. The geolocation button needs JavaScript.